When you browse on this site, cookies collect data to enhance your experience and personalize the content and advertising you see.
Visit our Privacy Policy to learn more. By continuing to use the site, you agree to this use of cookies and data.
  • In Czech Republic
  • List of Countries
  • For 7 days
  • Water Temperature
  • Weather Map
  • Weather Widgets
  • user-avatar
    Login

    Hourly Weather Mayrhofen

    Today, 30 May, Saturday

    Time Temperature Precipitation Wind Pressure Humidity
    00:00 0°C° 0 mm 1 mps 617 mmHg 91%
    01:00 0°C° 0 mm 1 mps 617 mmHg 92%
    02:00 0°C° 0 mm 1 mps 617 mmHg 91%
    03:00 0°C° 0 mm 1 mps 617 mmHg 91%
    04:00 0°C° 0 mm 1 mps 616 mmHg 91%
    05:00 +2°C° 0 mm 1 mps 617 mmHg 84%
    06:00 +4°C° 0 mm 1 mps 618 mmHg 78%
    07:00 +6°C° 0 mm 1 mps 619 mmHg 71%
    08:00 +6°C° 0 mm 2 mps 619 mmHg 65%
    09:00 +8°C° 0 mm 2 mps 619 mmHg 58%
    10:00 +9°C° 0 mm 2 mps 619 mmHg 51%
    11:00 +9°C° 0 mm 2 mps 619 mmHg 51%
    12:00 +10°C° 0 mm 3 mps 619 mmHg 51%
    13:00 +10°C° 0 mm 3 mps 619 mmHg 51%
    14:00 +9°C° 0.1 mm 3 mps 619 mmHg 53%
    15:00 +9°C° 0.1 mm 3 mps 618 mmHg 55%
    16:00 +9°C° 0.1 mm 3 mps 618 mmHg 58%
    17:00 +8°C° 0.1 mm 3 mps 618 mmHg 66%
    18:00 +6°C° 0.1 mm 2 mps 617 mmHg 74%
    19:00 +5°C° 0.1 mm 2 mps 617 mmHg 83%
    20:00 +4°C° 0 mm 2 mps 617 mmHg 87%
    21:00 +3°C° 0 mm 2 mps 617 mmHg 91%
    22:00 +3°C° 0 mm 1 mps 617 mmHg 96%
    23:00 +2°C° 0 mm 1 mps 616 mmHg 95%

    Tomorrow, 31 May, Sunday

    Time Temperature Precipitation Wind Pressure Humidity
    00:00 +2°C° 0 mm 1 mps 616 mmHg 95%
    01:00 +1°C° 0 mm 1 mps 616 mmHg 95%
    02:00 +1°C° 0 mm 1 mps 616 mmHg 95%
    03:00 +1°C° 0 mm 1 mps 616 mmHg 94%
    04:00 0°C° 0 mm 1 mps 616 mmHg 94%
    05:00 +2°C° 0 mm 1 mps 616 mmHg 89%
    06:00 +3°C° 0 mm 1 mps 617 mmHg 84%
    07:00 +5°C° 0 mm 1 mps 617 mmHg 79%
    08:00 +6°C° 0 mm 1 mps 617 mmHg 73%
    09:00 +8°C° 0 mm 1 mps 618 mmHg 66%
    10:00 +8°C° 0 mm 2 mps 618 mmHg 60%
    11:00 +9°C° 0 mm 2 mps 619 mmHg 57%
    12:00 +10°C° 0 mm 3 mps 619 mmHg 55%
    13:00 +10°C° 0 mm 3 mps 619 mmHg 52%
    14:00 +10°C° 0 mm 3 mps 619 mmHg 53%
    15:00 +10°C° 0 mm 3 mps 619 mmHg 54%
    16:00 +10°C° 0 mm 3 mps 619 mmHg 55%
    17:00 +9°C° 0 mm 3 mps 619 mmHg 59%
    18:00 +8°C° 0 mm 3 mps 618 mmHg 64%
    19:00 +7°C° 0 mm 2 mps 618 mmHg 69%
    20:00 +5°C° 0 mm 2 mps 618 mmHg 77%
    21:00 +3°C° 0 mm 2 mps 618 mmHg 84%
    22:00 +2°C° 0 mm 1 mps 617 mmHg 92%
    23:00 +2°C° 0 mm 1 mps 617 mmHg 91%

    Day after tomorrow, 1 June, Monday

    Time Temperature Precipitation Wind Pressure Humidity
    00:00 +2°C° 0 mm 1 mps 617 mmHg 90%
    01:00 +1°C° 0 mm 1 mps 617 mmHg 89%
    02:00 +1°C° 0 mm 1 mps 617 mmHg 89%
    03:00 +1°C° 0 mm 1 mps 616 mmHg 89%
    04:00 +1°C° 0 mm 1 mps 616 mmHg 89%
    05:00 +3°C° 0 mm 1 mps 617 mmHg 81%
    06:00 +6°C° 0 mm 1 mps 618 mmHg 72%
    07:00 +8°C° 0 mm 1 mps 619 mmHg 63%
    08:00 +10°C° 0 mm 1 mps 620 mmHg 56%
    09:00 +12°C° 0 mm 1 mps 621 mmHg 49%
    10:00 +14°C° 0 mm 1 mps 621 mmHg 41%
    11:00 +15°C° 0 mm 2 mps 621 mmHg 40%
    12:00 +16°C° 0 mm 2 mps 621 mmHg 38%
    13:00 +17°C° 0 mm 2 mps 622 mmHg 36%
    14:00 +17°C° 0 mm 2 mps 621 mmHg 38%
    15:00 +17°C° 0 mm 3 mps 621 mmHg 41%
    16:00 +16°C° 0 mm 3 mps 621 mmHg 43%
    17:00 +15°C° 0 mm 2 mps 621 mmHg 53%
    18:00 +13°C° 0 mm 2 mps 620 mmHg 63%
    19:00 +12°C° 0 mm 2 mps 619 mmHg 74%
    20:00 +9°C° 0 mm 1 mps 619 mmHg 81%
    21:00 +7°C° 0 mm 1 mps 618 mmHg 88%
    22:00 +5°C° 0 mm 1 mps 618 mmHg 95%
    23:00 +5°C° 0 mm 1 mps 618 mmHg 95%

    2 June, Tuesday

    Time Temperature Precipitation Wind Pressure Humidity
    00:00 +3°C° 0 mm 0 mps 617 mmHg 95%
    01:00 +3°C° 0 mm 0 mps 617 mmHg 94%
    02:00 +3°C° 0 mm 0 mps 617 mmHg 93%
    03:00 +3°C° 0 mm 0 mps 617 mmHg 92%
    04:00 +2°C° 0 mm 0 mps 616 mmHg 91%
    05:00 +5°C° 0 mm 0 mps 617 mmHg 84%
    06:00 +7°C° 0 mm 0 mps 618 mmHg 76%
    07:00 +10°C° 0 mm 0 mps 619 mmHg 68%
    08:00 +12°C° 0 mm 1 mps 619 mmHg 59%
    09:00 +14°C° 0 mm 1 mps 620 mmHg 50%
    10:00 +16°C° 0 mm 2 mps 620 mmHg 41%
    11:00 +16°C° 0 mm 2 mps 620 mmHg 39%
    12:00 +17°C° 0 mm 2 mps 620 mmHg 37%
    13:00 +18°C° 0 mm 2 mps 620 mmHg 36%
    14:00 +17°C° 0.1 mm 3 mps 620 mmHg 38%
    15:00 +17°C° 0.1 mm 3 mps 619 mmHg 41%
    16:00 +17°C° 0.1 mm 3 mps 619 mmHg 44%
    17:00 +15°C° 0.2 mm 2 mps 618 mmHg 54%
    18:00 +13°C° 0.2 mm 2 mps 617 mmHg 65%
    19:00 +12°C° 0.2 mm 1 mps 616 mmHg 75%
    20:00 +10°C° 0.1 mm 1 mps 615 mmHg 80%
    21:00 +8°C° 0.1 mm 1 mps 615 mmHg 86%
    22:00 +6°C° 0.1 mm 1 mps 614 mmHg 91%
    23:00 +6°C° 0 mm 1 mps 613 mmHg 91%

    3 June, Wednesday

    Time Temperature Precipitation Wind Pressure Humidity
    00:00 +6°C° 0 mm 1 mps 613 mmHg 91%
    01:00 +5°C° 0 mm 1 mps 613 mmHg 92%
    02:00 +6°C° 0 mm 1 mps 612 mmHg 92%
    03:00 +6°C° 0 mm 1 mps 612 mmHg 93%
    04:00 +6°C° 0 mm 1 mps 612 mmHg 94%
    05:00 +7°C° 0 mm 1 mps 613 mmHg 89%
    06:00 +9°C° 0 mm 1 mps 613 mmHg 85%
    07:00 +10°C° 0 mm 1 mps 613 mmHg 80%
    08:00 +11°C° 0.3 mm 1 mps 614 mmHg 77%
    09:00 +12°C° 0.3 mm 1 mps 614 mmHg 74%
    10:00 +13°C° 0.3 mm 1 mps 614 mmHg 71%
    11:00 +13°C° 0.7 mm 1 mps 614 mmHg 69%
    12:00 +14°C° 0.7 mm 1 mps 614 mmHg 67%
    13:00 +14°C° 0.7 mm 1 mps 614 mmHg 66%
    14:00 +14°C° 0.8 mm 1 mps 614 mmHg 67%
    15:00 +14°C° 0.8 mm 1 mps 614 mmHg 68%
    16:00 +13°C° 0.8 mm 1 mps 613 mmHg 69%
    17:00 +12°C° 0.6 mm 1 mps 613 mmHg 74%
    18:00 +12°C° 0.6 mm 1 mps 613 mmHg 80%
    19:00 +11°C° 0.6 mm 1 mps 613 mmHg 85%
    20:00 +9°C° 0.1 mm 1 mps 613 mmHg 88%
    21:00 +8°C° 0.1 mm 1 mps 612 mmHg 90%
    22:00 +7°C° 0.1 mm 1 mps 612 mmHg 93%
    23:00 +6°C° 0 mm 1 mps 612 mmHg 93%

    4 June, Thursday

    Time Temperature Precipitation Wind Pressure Humidity
    00:00 +6°C° 0 mm 1 mps 612 mmHg 93%
    01:00 +5°C° 0 mm 1 mps 612 mmHg 93%
    02:00 +5°C° 0 mm 1 mps 612 mmHg 93%
    03:00 +5°C° 0 mm 1 mps 612 mmHg 92%
    04:00 +4°C° 0 mm 1 mps 612 mmHg 92%
    05:00 +6°C° 0 mm 0 mps 612 mmHg 87%
    06:00 +8°C° 0 mm 0 mps 613 mmHg 82%
    07:00 +10°C° 0 mm 0 mps 614 mmHg 77%
    08:00 +12°C° 0 mm 0 mps 615 mmHg 69%
    09:00 +14°C° 0 mm 1 mps 616 mmHg 60%
    10:00 +16°C° 0 mm 1 mps 616 mmHg 52%
    11:00 +16°C° 0.5 mm 1 mps 616 mmHg 54%
    12:00 +16°C° 0.5 mm 1 mps 616 mmHg 56%
    13:00 +16°C° 0.5 mm 1 mps 616 mmHg 57%
    14:00 +16°C° 1 mm 1 mps 616 mmHg 63%
    15:00 +15°C° 1 mm 1 mps 616 mmHg 68%
    16:00 +15°C° 1 mm 1 mps 615 mmHg 73%
    17:00 +14°C° 0.9 mm 1 mps 615 mmHg 78%
    18:00 +13°C° 0.9 mm 1 mps 615 mmHg 83%
    19:00 +12°C° 0.9 mm 1 mps 615 mmHg 88%
    20:00 +11°C° 0.5 mm 1 mps 615 mmHg 90%
    21:00 +11°C° 0.5 mm 1 mps 615 mmHg 92%
    22:00 +9°C° 0.5 mm 2 mps 615 mmHg 93%
    23:00 +10°C° 0.6 mm 1 mps 615 mmHg 94%
    Show more